Location: Unspecified
(34.4480°N, 0.0000°E)
Time: 23:12:16
(UTC+00:00)

AO-7 - Visible Passes

Search period start: 23 January 2020 00:00
Search period end: 02 February 2020 00:00
Orbit: 1440 x 1458 km, 101.8° (Epoch: 23 January)

Date Brightness Start Highest point End Pass type
(mag) Time Alt. Az. Time Alt. Az. Time Alt. Az.
23 Jan ? 03:16:15 10° NNE 03:21:30 39° NE 03:21:30 39° NE visible
23 Jan ? 05:09:42 10° N 05:16:25 31° WNW 05:16:25 31° WNW visible
24 Jan ? 02:18:07 10° NE 02:20:34 16° ENE 02:20:34 16° ENE visible
24 Jan ? 04:08:58 10° NNE 04:15:29 57° N 04:15:29 57° N visible
24 Jan ? 06:04:52 10° NNW 06:08:35 14° NW 06:10:24 13° WNW visible
25 Jan ? 03:09:20 10° NNE 03:14:33 37° NE 03:14:33 37° NE visible
25 Jan ? 05:02:32 10° N 05:09:28 34° WNW 05:09:28 34° WNW visible
26 Jan ? 02:11:34 10° NE 02:13:37 15° ENE 02:13:37 15° ENE visible
26 Jan ? 04:01:57 10° NNE 04:08:32 60° N 04:08:32 60° N visible
26 Jan ? 05:57:21 10° NNW 06:01:44 16° NW 06:03:27 15° WNW visible
27 Jan ? 03:02:27 10° NNE 03:07:36 35° ENE 03:07:36 35° ENE visible
27 Jan ? 04:55:23 10° N 05:02:32 38° WNW 05:02:32 38° WNW visible
28 Jan ? 02:05:09 10° ENE 02:06:41 13° ENE 02:06:41 13° ENE visible
28 Jan ? 03:54:56 10° NNE 04:01:36 62° NNE 04:01:36 62° NNE visible
28 Jan ? 05:49:57 10° NNW 05:54:53 17° NW 05:56:31 16° WNW visible
29 Jan ? 02:55:35 10° NNE 03:00:41 32° ENE 03:00:41 32° ENE visible
29 Jan ? 04:48:16 10° N 04:55:36 42° WNW 04:55:36 42° WNW visible
30 Jan ? 01:58:54 10° ENE 01:59:47 11° ENE 01:59:47 11° ENE visible
30 Jan ? 03:47:56 10° NNE 03:54:41 63° NNE 03:54:41 63° NNE visible
30 Jan ? 05:42:37 10° NNW 05:48:02 19° NW 05:49:37 18° WNW visible
31 Jan ? 02:48:45 10° NE 02:53:47 30° ENE 02:53:47 30° ENE visible
31 Jan ? 04:41:09 10° N 04:48:42 46° WNW 04:48:42 46° WNW visible
01 Feb ? 03:40:56 10° NNE 03:47:48 63° NE 03:47:48 63° NE visible
01 Feb ? 05:35:19 10° NNW 05:41:09 22° WNW 05:42:43 20° WNW visible
